Theta_e
295 296 296 295 297 301 301 304 301 305 306 312 316 318 320 322 324 325 327 330 334 337 346 354 355 358 358 354 357 355 356 355 358 362 364 365 365 368 368 369 369 371 371 370
292 295 295 293 295 297 299 301 302 304 304 314 316 320 321 321 324 324 326 328 330 337 341 345 349 357 360 359 358 358 359 356 360 364 365 365 365 367 369 369 370 371 369 370
289 293 293 289 293 295 297 300 301 299 307 313 314 316 321 324 326 327 331 332 335 337 337 341 345 352 356 361 360 361 361 362 362 365 365 365 366 367 368 368 370 370 370 369
289 290 282 294 299 299 297 299 303 305 307 310 313 317 321 332 331 332 333 335 337 339 341 343 343 346 351 356 363 362 362 365 363 366 365 366 367 367 369 369 369 370 370 371
287 287 291 293 298 300 295 298 306 305 308 310 313 316 318 327 333 334 337 339 340 342 343 346 347 347 348 353 362 362 364 363 365 366 367 367 367 368 369 370 369 369 370 371
289 285 282 292 301 302 303 296 308 312 308 310 311 308 314 327 330 332 336 340 343 345 347 348 350 350 349 346 356 361 363 364 368 368 369 368 369 370 371 370 369 366 368 372
288 287 290 300 301 301 290 295 301 310 312 314 313 318 321 322 323 327 331 338 342 349 349 351 354 352 353 349 353 361 365 367 370 370 370 372 373 373 372 371 366 370 368 371
290 286 284 302 300 293 297 297 297 306 309 310 314 314 315 317 317 319 325 326 333 347 352 354 355 355 358 356 357 366 366 367 369 371 366 366 372 372 372 371 370 372 370 369
292 292 301 301 300 305 302 297 298 306 307 308 310 311 310 311 315 318 320 320 327 339 355 357 356 354 358 358 367 367 368 368 368 370 370 371 370 371 366 370 361 361 360 358
293 297 296 298 301 301 300 298 302 307 308 308 308 311 308 312 314 318 319 319 323 330 337 348 352 357 361 363 369 369 368 368 369 367 366 368 365 365 362 360 359 358 357 356
290 294 294 297 299 299 300 303 307 309 308 307 307 309 309 309 312 319 320 320 322 323 325 330 336 340 346 354 366 361 365 364 364 362 361 365 364 362 361 366 351 359 356 355
287 293 293 294 298 300 300 304 305 306 307 308 309 309 310 310 314 320 319 321 320 320 322 323 326 327 333 339 354 360 357 359 358 358 360 360 360 354 308 315 310 312 312 332
292 296 297 298 300 300 300 304 305 304 305 307 309 310 310 312 317 318 319 318 320 320 321 323 325 325 328 333 339 358 359 359 359 352 359 361 361 357 353 331 307 306 307 312
297 296 294 297 295 299 301 303 303 303 304 306 307 311 313 314 315 315 315 318 322 321 319 320 321 321 325 329 333 344 356 330 359 357 357 359 358 358 357 354 350 354 313 317
299 299 297 300 299 299 300 301 300 299 301 302 305 306 309 312 313 314 316 318 320 320 319 319 320 321 327 328 328 338 342 346 349 358 358 350 355 350 346 345 348 347 341 322
300 299 299 297 297 297 298 298 297 298 299 301 303 305 306 308 309 311 312 314 315 315 316 317 319 320 326 330 329 334 341 331 340 352 348 348 346 345 344 344 342 332 333 345
298 297 297 297 297 298 297 298 298 298 299 300 301 303 304 304 305 304 306 309 311 312 314 315 314 316 321 325 324 326 331 342 336 351 349 346 347 342 345 348 348 351 349 332
301 301 301 301 300 299 300 299 298 299 299 300 301 301 302 301 301 303 303 306 306 307 307 311 312 314 320 323 319 321 324 329 337 343 344 348 348 348 350 351 351 345 339 330
303 302 302 301 301 301 302 301 298 299 299 301 301 301 301 300 302 303 305 303 302 303 305 309 310 314 315 319 317 318 321 325 331 339 342 332 342 343 345 345 346 344 341 338
303 303 303 302 303 302 302 302 302 303 302 303 304 303 303 304 304 303 302 301 302 303 306 305 307 310 312 314 314 318 321 326 332 337 338 336 331 336 335 321 324 330 331 336
304 304 302 303 302 304 303 303 302 301 302 302 302 302 301 303 303 302 299 298 301 304 304 305 305 305 307 308 311 313 321 328 323 319 322 330 330 323 323 322 321 318 318 319
304 304 302 302 303 302 303 303 303 303 302 302 303 303 303 302 303 301 300 299 302 302 302 302 302 303 303 303 301 301 302 304 304 303 302 302 304 305 303 304 307 307 309 313
305 305 304 303 302 303 303 303 303 304 303 303 303 303 302 302 302 301 297 300 302 302 301 301 301 301 300 298 297 297 297 297 297 297 296 296 296 296 295 296 297 296 296 296
304 306 305 305 304 303 302 304 303 304 305 305 305 306 303 301 303 302 302 301 300 300 301 301 300 300 299 298 297 296 296 295 295 296 295 294 294 294 294 294 293 294 294 294
307 305 305 304 303 301 304 303 304 303 304 304 305 305 306 305 303 303 303 302 300 299 299 300 301 302 300 299 298 297 297 296 295 295 295 294 294 294 294 293 294 293 294 293
305 303 304 304 302 302 302 302 300 301 301 302 302 304 304 305 305 304 304 304 304 302 304 304 304 302 302 302 301 300 299 297 297 296 295 295 295 294 294 295 294 294 294 296
305 296 305 302 302 302 302 301 301 300 300 301 301 304 303 304 304 303 302 303 302 302 302 302 302 301 301 301 302 303 303 301 297 299 298 296 296 296 296 295 295 295 295 296
Wind_Speed
16 18 12 16 16 13 18 13 19 20 24 23 14 12 7 5 8 13 11 12 19 16 17 17 17 18 19 21 21 22 21 22 23 21 20 19 19 19 18 17 16 16 15 14
18 16 15 18 19 18 21 20 20 24 27 21 20 12 13 6 9 3 5 6 8 11 13 15 17 16 19 20 20 21 20 23 19 19 20 20 20 19 18 17 17 16 16 16
19 17 18 21 21 20 22 23 22 23 23 20 19 10 15 12 8 1 7 8 5 8 9 13 18 16 18 20 18 19 19 18 19 19 20 20 19 19 19 19 17 17 17 16
15 18 20 15 13 16 24 24 24 24 26 25 24 9 20 1 7 9 8 10 10 10 10 11 13 17 18 19 20 19 19 18 19 19 20 19 19 20 19 17 18 16 16 16
14 14 18 19 1 10 9 13 18 23 24 27 24 24 13 17 1 7 9 10 11 11 13 12 14 14 13 18 19 20 19 21 20 20 20 19 20 20 17 16 16 16 16 17
12 17 21 15 12 8 5 13 11 18 23 22 16 14 9 12 9 11 12 11 13 14 15 15 16 17 16 18 19 22 21 22 19 19 19 20 20 18 17 16 17 15 16 16
16 15 12 13 8 8 5 4 22 20 16 13 11 11 13 13 14 13 12 13 16 17 16 17 17 18 19 18 21 22 18 17 18 18 18 17 16 15 16 16 15 15 15 14
16 9 16 9 6 5 6 12 18 21 13 14 14 13 13 12 14 15 16 18 17 18 14 14 16 16 17 18 18 15 17 18 18 17 16 16 16 15 15 14 14 13 13 13
6 5 5 4 9 10 7 12 22 17 10 10 11 10 11 11 12 12 16 16 16 16 11 10 9 10 14 17 14 15 15 16 16 16 16 14 16 15 14 14 14 14 13 13
9 3 10 12 10 6 8 19 21 12 8 7 11 9 10 11 12 11 13 14 15 14 16 15 16 17 7 9 10 12 14 15 15 16 16 15 14 14 14 14 14 13 14 13
6 6 13 4 4 8 15 19 10 6 4 7 8 9 8 9 10 10 9 11 13 13 13 15 16 16 17 14 8 13 14 15 15 14 16 15 14 13 14 11 10 13 12 13
4 8 9 9 11 11 15 9 9 7 3 4 5 7 7 8 8 7 9 10 12 14 14 15 15 16 17 16 13 6 11 11 14 15 15 15 13 9 14 13 9 11 10 5
5 10 10 7 6 11 14 7 7 8 12 2 2 5 6 6 7 6 8 10 9 11 11 11 15 16 15 15 15 4 8 12 12 14 15 13 13 13 11 1 6 9 11 10
9 11 6 8 6 11 12 8 8 8 9 9 9 6 6 1 5 8 9 8 7 8 11 12 13 16 17 16 15 11 0 6 4 7 10 8 8 10 9 10 10 7 8 6
8 7 9 8 10 11 9 10 8 8 9 8 9 10 10 8 7 6 9 11 9 10 11 11 12 13 14 15 16 13 9 8 3 5 4 8 5 7 8 8 8 6 8 6
10 11 8 11 12 13 12 12 11 11 10 8 8 11 11 12 11 10 12 12 12 12 13 13 12 14 15 14 15 11 10 6 4 6 4 5 7 8 7 9 10 9 7 4
12 11 12 14 13 13 13 11 10 11 12 10 11 10 11 11 12 12 12 13 12 11 13 13 14 14 13 11 12 10 9 7 7 3 6 5 4 5 1 5 8 5 9 9
4 5 8 11 12 12 12 13 12 13 12 10 9 8 12 13 11 9 12 14 13 11 13 14 15 15 12 11 11 9 10 7 8 4 3 3 5 2 6 9 7 5 10 7
4 7 9 10 10 10 10 10 10 9 12 12 12 13 13 11 10 9 9 12 14 14 15 15 19 14 12 12 11 9 9 11 10 4 5 5 3 8 4 4 3 5 6 6
2 2 6 5 5 7 8 9 8 8 7 9 9 10 10 10 12 12 12 12 13 10 14 16 15 13 13 15 19 9 4 5 9 14 7 8 9 7 7 10 10 8 7 2
4 4 5 9 6 9 7 4 7 7 7 8 9 9 11 9 13 14 11 10 14 13 16 19 15 12 11 12 12 10 14 10 6 5 10 9 8 10 10 11 9 9 8 8
4 6 4 4 8 8 9 7 8 8 6 6 6 5 7 8 10 13 13 10 8 17 12 10 11 19 13 17 11 11 11 11 10 10 10 10 9 9 10 9 9 9 8 6
4 5 7 4 7 8 8 8 8 7 7 8 7 8 8 9 10 11 10 12 10 15 10 11 20 23 23 13 12 12 13 13 12 11 10 10 9 9 8 7 8 9 9 7
4 3 3 3 3 5 6 6 5 5 5 5 7 9 10 4 11 7 11 13 15 16 14 15 17 23 20 11 12 12 12 12 12 11 11 14 10 10 9 8 8 7 8 10
3 6 9 6 3 3 1 4 2 5 3 6 8 7 12 9 9 9 9 12 13 10 8 14 16 20 14 13 12 12 11 10 10 10 10 10 10 10 10 9 9 9 9 10
7 5 3 3 6 5 5 6 6 7 7 7 7 8 6 9 7 7 8 8 9 6 8 9 9 9 11 12 12 13 10 9 10 10 10 9 9 9 8 8 8 8 8 10
4 5 3 4 5 6 8 6 7 7 8 8 8 7 4 8 7 8 6 7 7 7 8 7 8 8 10 10 9 9 9 9 9 10 10 8 8 8 7 7 7 6 5 6
Wind_Direction
270 283 279 284 289 268 266 253 258 253 248 262 248 201 204 240 232 251 259 234 217 210 185 185 189 190 192 206 200 201 198 202 203 201 201 200 200 197 200 201 201 204 210 213
278 274 273 263 256 246 253 255 261 271 277 286 320 285 286 205 277 173 241 253 268 225 218 200 193 194 190 200 206 201 199 201 200 194 198 203 200 199 198 201 202 203 209 211
258 245 247 246 239 244 249 244 249 249 253 271 269 289 264 267 266 222 247 278 265 277 258 232 199 202 203 196 207 202 207 197 201 192 198 200 198 197 200 201 200 205 208 211
268 278 253 254 257 270 258 247 247 246 259 263 263 279 321 333 334 316 292 280 281 275 265 254 249 209 207 195 197 212 201 203 197 195 196 198 197 200 199 200 202 202 208 210
249 249 255 255 2 18 33 285 285 253 238 251 258 264 261 276 282 285 288 286 277 273 270 271 268 248 227 201 190 203 206 203 198 198 193 197 201 199 197 201 203 204 207 210
255 247 246 253 64 11 286 259 293 317 231 247 263 262 253 10 335 326 304 299 297 288 274 256 242 244 236 222 198 199 208 202 199 197 197 198 199 199 199 200 205 206 209 209
229 251 256 37 24 345 249 353 332 323 317 296 275 342 8 342 343 335 331 319 312 285 264 253 242 229 231 224 208 204 200 196 196 198 201 199 198 196 201 204 207 209 211 211
234 246 253 34 293 276 4 321 311 304 312 309 321 343 332 355 343 345 349 347 332 305 267 258 240 226 219 220 227 185 189 192 192 194 198 193 196 194 196 202 210 207 214 214
240 246 71 20 322 300 301 280 284 282 282 296 303 302 334 337 339 356 1 347 339 326 319 355 320 219 210 219 197 175 183 187 186 190 192 195 188 192 194 198 212 212 207 221
333 93 355 324 318 309 303 275 281 280 299 310 291 319 325 327 332 8 2 350 346 354 12 27 20 20 344 155 169 170 182 185 186 184 189 203 184 191 202 198 202 209 214 211
263 323 335 86 316 302 299 284 292 260 285 288 301 302 320 315 323 351 351 346 360 4 20 18 15 14 7 353 195 187 188 189 186 186 189 194 192 194 198 205 208 208 213 212
297 337 300 295 316 338 310 320 9 359 331 294 289 305 322 303 322 345 0 0 16 6 20 14 14 15 6 353 340 211 189 190 189 191 180 186 184 164 48 91 97 97 77 45
324 326 298 328 348 337 322 344 17 14 344 263 311 314 312 307 346 24 10 7 10 9 16 18 16 10 358 357 346 329 217 201 190 205 174 184 183 180 169 129 154 161 136 129
33 357 354 2 355 349 345 352 10 29 13 4 7 341 290 67 23 23 1 356 353 24 26 16 11 6 354 352 338 348 308 18 201 242 158 161 174 177 157 163 165 161 49 74
52 65 350 24 20 13 11 0 14 31 28 2 15 17 360 31 37 26 9 353 356 26 24 13 11 3 348 351 347 344 4 23 13 98 78 113 133 156 175 189 185 177 147 157
42 30 31 46 32 27 24 17 18 23 21 12 29 27 15 29 32 22 17 9 7 18 7 2 7 358 346 348 345 335 333 345 317 120 165 179 183 180 178 223 192 201 188 142
11 19 15 10 45 43 32 25 24 23 23 25 29 34 37 31 40 29 18 10 14 14 15 359 358 344 329 347 350 332 319 311 308 225 158 202 203 121 220 334 281 240 107 51
57 34 17 18 17 33 38 36 32 20 21 30 47 52 46 36 25 25 25 16 16 19 11 352 350 335 339 360 349 329 300 334 330 78 356 183 137 64 108 237 244 121 91 96
19 24 24 17 19 19 37 51 61 47 29 29 32 43 46 29 15 18 33 24 15 7 2 354 342 340 348 357 358 317 345 334 327 18 56 11 95 93 130 177 134 96 108 136
45 33 349 45 26 22 33 29 32 44 26 6 33 39 54 48 42 38 21 19 18 351 355 360 355 354 3 349 341 308 236 335 339 329 32 56 30 46 84 50 26 36 26 95
101 35 1 358 22 27 36 59 38 62 38 5 13 35 43 47 53 48 34 24 10 351 15 10 11 359 9 12 8 4 351 57 90 17 12 28 52 61 59 57 51 29 26 39
23 106 112 336 3 35 24 23 40 54 85 45 33 52 35 38 60 65 41 31 20 27 31 18 22 29 30 39 36 34 30 36 35 37 37 33 28 42 57 53 64 69 38 15
10 5 63 16 34 33 25 8 53 23 36 37 51 82 58 35 53 39 43 22 30 29 43 43 44 44 41 37 41 40 40 44 44 40 45 44 46 44 43 43 57 63 69 54
315 25 350 55 61 49 20 10 37 52 19 60 43 54 86 41 72 60 92 53 36 36 42 47 47 54 50 48 47 46 47 48 48 52 53 56 54 51 46 43 45 42 55 67
275 45 34 293 295 56 23 6 18 40 53 51 61 64 74 64 61 43 73 89 58 44 40 39 48 63 62 59 49 46 51 49 52 58 59 60 59 61 65 55 54 54 55 53
263 112 228 309 6 338 10 16 30 40 19 12 26 59 54 78 87 69 74 71 102 118 73 59 49 58 62 69 73 73 72 63 53 48 51 58 62 62 59 64 65 59 64 68
187 357 52 51 342 355 26 32 349 42 35 347 20 44 46 63 73 76 37 57 58 69 77 75 62 72 65 59 59 76 99 95 93 84 73 58 47 51 52 65 63 63 58 75